Find Starlink 6055

NORAD ID: 56467 Int'l Des: 2023-064 Owner: SPXS Country: US Constellation: starlink operational
LEOCIRCULAR

当前视图

正在加载3D地球...

About Starlink 6055

Starlink 6055 (NORAD 56467) is a starlink constellation satellite (v1.5) launched May 10, 2023 by SPXS of US. It operates in LEO, CIRCULAR orbit with a mass of 305.00 kg.

关于 Starlink 6055

正在加载描述...

即将过境

Passes for default location (London). Set your location on the main map for personalized predictions.

高度历史

Loading altitude history...

两行轨道根数

1 56467U 23064V 26171.28243144 .00000015 00000-0 90859-5 0 9990
2 56467 69.9982 225.9025 0003535 267.3183 92.7571 14.98328268171106
Epoch: Jun 20, 2026 • Age: 7 hours

当前状态

高度 575.2 km
速度 7.57 km/s
星下点 21.11°N, 125.18°E
发射日期 May 10, 2023
运行时间 3.1 years
类型 internet

技术详情

分类 Payload
质量 305.00 kg
干质量 290.00 kg
总质量 305.00 kg
长度 0.20 m
直径 2.80 m
跨度 9.00 m
形状 Box + pan
制造商 SPXS
平台类型 Starlink
阶段状态 In Orbit
所有者/国家 SPXS/US

Most Searched